owner,sensor,date,latitude,longitude,vertical_datum,wind_speed,wind_to_direction,wind_speed_of_gust,qcFlag 
DISL,ioos:station:DISL:MHPA:1,2016-07-01T00:00:00Z,30.6671,-87.9365,8.5,5.28,183.3,-9999.0,'1111122,1111122,1111122' 
DISL,ioos:station:DISL:MHPA:1,2016-07-01T00:30:00Z,30.6671,-87.9365,8.5,3.3,115.2,-9999.0,'1111122,1111122,1111122' 
DISL,ioos:station:DISL:MHPA:1,2016-07-01T01:00:00Z,30.6671,-87.9365,8.5,3.11,122.4,-9999.0,'1111122,1111122,1111122' 
DISL,ioos:station:DISL:MHPA:1,2016-07-01T01:30:00Z,30.6671,-87.9365,8.5,3.14,133.6,-9999.0,'1111122,1111122,1111122' 
DISL,ioos:station:DISL:MHPA:1,2016-07-01T02:00:00Z,30.6671,-87.9365,8.5,2.0,102.4,-9999.0,'1111122,1111122,1111122' 
DISL,ioos:station:DISL:MHPA:1,2016-07-01T02:30:00Z,30.6671,-87.9365,8.5,0.74,96.7,-9999.0,'1111122,1111122,1111122' 
DISL,ioos:station:DISL:MHPA:1,2016-07-01T03:00:00Z,30.6671,-87.9365,8.5,1.87,97.7,-9999.0,'1111122,1111122,1111122' 
DISL,ioos:station:DISL:MHPA:1,2016-07-01T03:30:00Z,30.6671,-87.9365,8.5,1.32,87.0,-9999.0,'1111122,1111122,1111122' 
DISL,ioos:station:DISL:MHPA:1,2016-07-01T04:00:00Z,30.6671,-87.9365,8.5,1.68,102.9,-9999.0,'1111122,1111122,1111122' 
DISL,ioos:station:DISL:MHPA:1,2016-07-01T04:30:00Z,30.6671,-87.9365,8.5,1.27,99.9,-9999.0,'1111122,1111122,1111122' 
DISL,ioos:station:DISL:MHPA:1,2016-07-01T05:00:00Z,30.6671,-87.9365,8.5,1.86,100.2,-9999.0,'1111122,1111122,1111122' 
DISL,ioos:station:DISL:MHPA:1,2016-07-01T05:30:00Z,30.6671,-87.9365,8.5,1.37,89.0,-9999.0,'1111122,1111122,1111122' 
DISL,ioos:station:DISL:MHPA:1,2016-07-01T06:00:00Z,30.6671,-87.9365,8.5,2.22,95.2,-9999.0,'1111122,1111122,1111122' 
DISL,ioos:station:DISL:MHPA:1,2016-07-01T06:30:00Z,30.6671,-87.9365,8.5,1.71,89.0,-9999.0,'1111122,1111122,1111122' 
DISL,ioos:station:DISL:MHPA:1,2016-07-01T07:00:00Z,30.6671,-87.9365,8.5,1.6,94.4,-9999.0,'1111122,1111122,1111122' 
DISL,ioos:station:DISL:MHPA:1,2016-07-01T07:30:00Z,30.6671,-87.9365,8.5,0.98,343.2,-9999.0,'1111122,1111122,1111122' 
DISL,ioos:station:DISL:MHPA:1,2016-07-01T08:00:00Z,30.6671,-87.9365,8.5,0.6,15.4,-9999.0,'1111122,1111122,1111122' 
DISL,ioos:station:DISL:MHPA:1,2016-07-01T08:30:00Z,30.6671,-87.9365,8.5,0.9,99.4,-9999.0,'1111122,1111122,1111122' 
DISL,ioos:station:DISL:MHPA:1,2016-07-01T09:00:00Z,30.6671,-87.9365,8.5,2.83,197.9,-9999.0,'1111122,1111122,1111122' 
DISL,ioos:station:DISL:MHPA:1,2016-07-01T09:30:00Z,30.6671,-87.9365,8.5,1.89,332.5,-9999.0,'1111122,1111122,1111122' 
DISL,ioos:station:DISL:MHPA:1,2016-07-01T10:00:00Z,30.6671,-87.9365,8.5,1.05,24.78,-9999.0,'1111122,1111122,1111122' 
DISL,ioos:station:DISL:MHPA:1,2016-07-01T10:30:00Z,30.6671,-87.9365,8.5,0.94,26.8,-9999.0,'1111122,1111122,1111122' 
DISL,ioos:station:DISL:MHPA:1,2016-07-01T11:00:00Z,30.6671,-87.9365,8.5,0.91,351.0,-9999.0,'1111122,1111122,1111122' 
DISL,ioos:station:DISL:MHPA:1,2016-07-01T11:30:00Z,30.6671,-87.9365,8.5,0.92,21.69,-9999.0,'1111122,1111122,1111122' 
DISL,ioos:station:DISL:MHPA:1,2016-07-01T12:00:00Z,30.6671,-87.9365,8.5,1.61,76.01,-9999.0,'1111122,1111122,1111122' 
DISL,ioos:station:DISL:MHPA:1,2016-07-01T12:30:00Z,30.6671,-87.9365,8.5,0.89,57.47,-9999.0,'1111122,1111122,1111122' 
DISL,ioos:station:DISL:MHPA:1,2016-07-01T13:00:00Z,30.6671,-87.9365,8.5,0.79,37.68,-9999.0,'1111122,1111122,1111122' 
DISL,ioos:station:DISL:MHPA:1,2016-07-01T13:30:00Z,30.6671,-87.9365,8.5,0.32,187.4,-9999.0,'1111122,1111122,1111122' 
DISL,ioos:station:DISL:MHPA:1,2016-07-01T14:00:00Z,30.6671,-87.9365,8.5,1.44,265.1,-9999.0,'1111122,1111122,1111122' 
DISL,ioos:station:DISL:MHPA:1,2016-07-01T14:30:00Z,30.6671,-87.9365,8.5,2.84,310.9,-9999.0,'1111122,1111122,1111122' 
DISL,ioos:station:DISL:MHPA:1,2016-07-01T15:00:00Z,30.6671,-87.9365,8.5,2.8,308.4,-9999.0,'1111122,1111122,1111122' 
DISL,ioos:station:DISL:MHPA:1,2016-07-01T15:30:00Z,30.6671,-87.9365,8.5,1.45,318.8,-9999.0,'1111122,1111122,1111122' 
DISL,ioos:station:DISL:MHPA:1,2016-07-01T16:00:00Z,30.6671,-87.9365,8.5,1.57,337.6,-9999.0,'1111122,1111122,1111122' 
DISL,ioos:station:DISL:MHPA:1,2016-07-01T16:30:00Z,30.6671,-87.9365,8.5,2.26,324.3,-9999.0,'1111122,1111122,1111122' 
DISL,ioos:station:DISL:MHPA:1,2016-07-01T17:00:00Z,30.6671,-87.9365,8.5,1.76,334.5,-9999.0,'1111122,1111122,1111122' 
DISL,ioos:station:DISL:MHPA:1,2016-07-01T17:30:00Z,30.6671,-87.9365,8.5,2.41,325.8,-9999.0,'1111122,1111122,1111122' 
DISL,ioos:station:DISL:MHPA:1,2016-07-01T18:00:00Z,30.6671,-87.9365,8.5,3.08,21.84,-9999.0,'1111122,1111122,1111122' 
DISL,ioos:station:DISL:MHPA:1,2016-07-01T18:30:00Z,30.6671,-87.9365,8.5,2.87,359.9,-9999.0,'1111122,1111122,1111122' 
DISL,ioos:station:DISL:MHPA:1,2016-07-01T19:00:00Z,30.6671,-87.9365,8.5,2.51,12.32,-9999.0,'1111122,1111122,1111122' 
DISL,ioos:station:DISL:MHPA:1,2016-07-01T19:30:00Z,30.6671,-87.9365,8.5,3.3,331.5,-9999.0,'1111122,1111122,1111122' 
DISL,ioos:station:DISL:MHPA:1,2016-07-01T20:00:00Z,30.6671,-87.9365,8.5,3.05,328.7,-9999.0,'1111122,1111122,1111122' 
DISL,ioos:station:DISL:MHPA:1,2016-07-01T20:30:00Z,30.6671,-87.9365,8.5,3.47,347.6,-9999.0,'1111122,1111122,1111122' 
DISL,ioos:station:DISL:MHPA:1,2016-07-01T21:00:00Z,30.6671,-87.9365,8.5,3.1,359.4,-9999.0,'1111122,1111122,1111122' 
DISL,ioos:station:DISL:MHPA:1,2016-07-01T21:30:00Z,30.6671,-87.9365,8.5,3.14,4.188,-9999.0,'1111122,1111122,1111122' 
DISL,ioos:station:DISL:MHPA:1,2016-07-01T22:00:00Z,30.6671,-87.9365,8.5,2.83,4.199,-9999.0,'1111122,1111122,1111122' 
DISL,ioos:station:DISL:MHPA:1,2016-07-01T22:30:00Z,30.6671,-87.9365,8.5,1.84,344.9,-9999.0,'1111122,1111122,1111122' 
DISL,ioos:station:DISL:MHPA:1,2016-07-01T23:00:00Z,30.6671,-87.9365,8.5,1.42,331.2,-9999.0,'1111122,1111122,1111122' 
DISL,ioos:station:DISL:MHPA:1,2016-07-01T23:30:00Z,30.6671,-87.9365,8.5,1.21,15.06,-9999.0,'1111122,1111122,1111122' 
DISL,ioos:station:DISL:MHPA:1,2016-07-02T00:00:00Z,30.6671,-87.9365,8.5,1.65,356.2,-9999.0,'1111122,1111122,1111122' 
DISL,ioos:station:DISL:MHPA:1,2016-07-02T00:30:00Z,30.6671,-87.9365,8.5,1.43,18.69,-9999.0,'1111122,1111122,1111122' 
DISL,ioos:station:DISL:MHPA:1,2016-07-02T01:00:00Z,30.6671,-87.9365,8.5,1.06,30.53,-9999.0,'1111122,1111122,1111122' 
DISL,ioos:station:DISL:MHPA:1,2016-07-02T01:30:00Z,30.6671,-87.9365,8.5,0.69,38.64,-9999.0,'1111122,1111122,1111122' 
DISL,ioos:station:DISL:MHPA:1,2016-07-02T02:00:00Z,30.6671,-87.9365,8.5,1.58,142.2,-9999.0,'1111122,1111122,1111122' 
DISL,ioos:station:DISL:MHPA:1,2016-07-02T02:30:00Z,30.6671,-87.9365,8.5,4.28,224.4,-9999.0,'1111122,1111122,1111122' 
DISL,ioos:station:DISL:MHPA:1,2016-07-02T03:00:00Z,30.6671,-87.9365,8.5,4.08,245.2,-9999.0,'1111122,1111122,1111122' 
DISL,ioos:station:DISL:MHPA:1,2016-07-02T03:30:00Z,30.6671,-87.9365,8.5,2.95,254.6,-9999.0,'1111122,1111122,1111122' 
DISL,ioos:station:DISL:MHPA:1,2016-07-02T04:00:00Z,30.6671,-87.9365,8.5,2.59,265.0,-9999.0,'1111122,1111122,1111122' 
DISL,ioos:station:DISL:MHPA:1,2016-07-02T04:30:00Z,30.6671,-87.9365,8.5,2.82,254.1,-9999.0,'1111122,1111122,1111122' 
DISL,ioos:station:DISL:MHPA:1,2016-07-02T05:00:00Z,30.6671,-87.9365,8.5,2.37,237.3,-9999.0,'1111122,1111122,1111122' 
DISL,ioos:station:DISL:MHPA:1,2016-07-02T05:30:00Z,30.6671,-87.9365,8.5,1.48,268.3,-9999.0,'1111122,1111122,1111122' 
DISL,ioos:station:DISL:MHPA:1,2016-07-02T06:00:00Z,30.6671,-87.9365,8.5,0.13,277.1,-9999.0,'1111122,1111122,1111122' 
DISL,ioos:station:DISL:MHPA:1,2016-07-02T06:30:00Z,30.6671,-87.9365,8.5,2.27,260.2,-9999.0,'1111122,1111122,1111122' 
DISL,ioos:station:DISL:MHPA:1,2016-07-02T07:00:00Z,30.6671,-87.9365,8.5,2.51,251.9,-9999.0,'1111122,1111122,1111122' 
DISL,ioos:station:DISL:MHPA:1,2016-07-02T07:30:00Z,30.6671,-87.9365,8.5,2.28,230.9,-9999.0,'1111122,1111122,1111122' 
DISL,ioos:station:DISL:MHPA:1,2016-07-02T08:00:00Z,30.6671,-87.9365,8.5,2.41,249.9,-9999.0,'1111122,1111122,1111122' 
DISL,ioos:station:DISL:MHPA:1,2016-07-02T08:30:00Z,30.6671,-87.9365,8.5,2.37,252.0,-9999.0,'1111122,1111122,1111122' 
DISL,ioos:station:DISL:MHPA:1,2016-07-02T09:00:00Z,30.6671,-87.9365,8.5,2.07,266.8,-9999.0,'1111122,1111122,1111122' 
DISL,ioos:station:DISL:MHPA:1,2016-07-02T09:30:00Z,30.6671,-87.9365,8.5,2.58,267.7,-9999.0,'1111122,1111122,1111122' 
DISL,ioos:station:DISL:MHPA:1,2016-07-02T10:00:00Z,30.6671,-87.9365,8.5,1.72,284.7,-9999.0,'1111122,1111122,1111122' 
DISL,ioos:station:DISL:MHPA:1,2016-07-02T10:30:00Z,30.6671,-87.9365,8.5,1.92,282.5,-9999.0,'1111122,1111122,1111122' 
DISL,ioos:station:DISL:MHPA:1,2016-07-02T11:00:00Z,30.6671,-87.9365,8.5,1.5,333.1,-9999.0,'1111122,1111122,1111122' 
DISL,ioos:station:DISL:MHPA:1,2016-07-02T11:30:00Z,30.6671,-87.9365,8.5,1.03,2.874,-9999.0,'1111122,1111122,1111122' 
DISL,ioos:station:DISL:MHPA:1,2016-07-02T12:00:00Z,30.6671,-87.9365,8.5,0.97,341.8,-9999.0,'1111122,1111122,1111122' 
DISL,ioos:station:DISL:MHPA:1,2016-07-02T12:30:00Z,30.6671,-87.9365,8.5,2.21,297.9,-9999.0,'1111122,1111122,1111122' 
DISL,ioos:station:DISL:MHPA:1,2016-07-02T13:00:00Z,30.6671,-87.9365,8.5,1.55,335.0,-9999.0,'1111122,1111122,1111122' 
DISL,ioos:station:DISL:MHPA:1,2016-07-02T13:30:00Z,30.6671,-87.9365,8.5,1.56,338.6,-9999.0,'1111122,1111122,1111122' 
DISL,ioos:station:DISL:MHPA:1,2016-07-02T14:00:00Z,30.6671,-87.9365,8.5,1.92,335.8,-9999.0,'1111122,1111122,1111122' 
DISL,ioos:station:DISL:MHPA:1,2016-07-02T14:30:00Z,30.6671,-87.9365,8.5,1.53,356.3,-9999.0,'1111122,1111122,1111122' 
DISL,ioos:station:DISL:MHPA:1,2016-07-02T15:00:00Z,30.6671,-87.9365,8.5,0.86,299.4,-9999.0,'1111122,1111122,1111122' 
DISL,ioos:station:DISL:MHPA:1,2016-07-02T15:30:00Z,30.6671,-87.9365,8.5,0.6,173.1,-9999.0,'1111122,1111122,1111122' 
DISL,ioos:station:DISL:MHPA:1,2016-07-02T16:00:00Z,30.6671,-87.9365,8.5,1.98,183.6,-9999.0,'1111122,1111122,1111122' 
DISL,ioos:station:DISL:MHPA:1,2016-07-02T16:30:00Z,30.6671,-87.9365,8.5,1.98,178.2,-9999.0,'1111122,1111122,1111122' 
DISL,ioos:station:DISL:MHPA:1,2016-07-02T17:00:00Z,30.6671,-87.9365,8.5,1.87,176.0,-9999.0,'1111122,1111122,1111122' 
DISL,ioos:station:DISL:MHPA:1,2016-07-02T17:30:00Z,30.6671,-87.9365,8.5,2.59,173.3,-9999.0,'1111122,1111122,1111122' 
DISL,ioos:station:DISL:MHPA:1,2016-07-02T18:00:00Z,30.6671,-87.9365,8.5,1.93,187.4,-9999.0,'1111122,1111122,1111122' 
DISL,ioos:station:DISL:MHPA:1,2016-07-02T18:30:00Z,30.6671,-87.9365,8.5,2.13,187.7,-9999.0,'1111122,1111122,1111122' 
DISL,ioos:station:DISL:MHPA:1,2016-07-02T19:00:00Z,30.6671,-87.9365,8.5,2.93,172.0,-9999.0,'1111122,1111122,1111122' 
DISL,ioos:station:DISL:MHPA:1,2016-07-02T19:30:00Z,30.6671,-87.9365,8.5,3.56,185.6,-9999.0,'1111122,1111122,1111122' 
DISL,ioos:station:DISL:MHPA:1,2016-07-02T20:00:00Z,30.6671,-87.9365,8.5,4.32,190.4,-9999.0,'1111122,1111122,1111122' 
DISL,ioos:station:DISL:MHPA:1,2016-07-02T20:30:00Z,30.6671,-87.9365,8.5,5.23,191.4,-9999.0,'1111122,1111122,1111122' 
DISL,ioos:station:DISL:MHPA:1,2016-07-02T21:00:00Z,30.6671,-87.9365,8.5,5.74,195.8,-9999.0,'1111122,1111122,1111122' 
DISL,ioos:station:DISL:MHPA:1,2016-07-02T21:30:00Z,30.6671,-87.9365,8.5,5.62,193.2,-9999.0,'1111122,1111122,1111122' 
DISL,ioos:station:DISL:MHPA:1,2016-07-02T22:00:00Z,30.6671,-87.9365,8.5,5.81,184.8,-9999.0,'1111122,1111122,1111122' 
DISL,ioos:station:DISL:MHPA:1,2016-07-02T22:30:00Z,30.6671,-87.9365,8.5,5.21,200.8,-9999.0,'1111122,1111122,1111122' 
DISL,ioos:station:DISL:MHPA:1,2016-07-02T23:00:00Z,30.6671,-87.9365,8.5,5.59,192.7,-9999.0,'1111122,1111122,1111122' 
DISL,ioos:station:DISL:MHPA:1,2016-07-02T23:30:00Z,30.6671,-87.9365,8.5,5.17,199.7,-9999.0,'1111122,1111122,1111122' 
DISL,ioos:station:DISL:MHPA:1,2016-07-03T00:00:00Z,30.6671,-87.9365,8.5,5.21,213.0,-9999.0,'1111122,1111122,1111122' 
DISL,ioos:station:DISL:MHPA:1,2016-07-03T00:30:00Z,30.6671,-87.9365,8.5,5.04,214.5,-9999.0,'1111122,1111122,1111122' 
DISL,ioos:station:DISL:MHPA:1,2016-07-03T01:00:00Z,30.6671,-87.9365,8.5,4.51,220.5,-9999.0,'1111122,1111122,1111122' 
DISL,ioos:station:DISL:MHPA:1,2016-07-03T01:30:00Z,30.6671,-87.9365,8.5,4.23,220.5,-9999.0,'1111122,1111122,1111122' 
DISL,ioos:station:DISL:MHPA:1,2016-07-03T02:00:00Z,30.6671,-87.9365,8.5,4.32,209.8,-9999.0,'1111122,1111122,1111122' 
DISL,ioos:station:DISL:MHPA:1,2016-07-03T02:30:00Z,30.6671,-87.9365,8.5,4.31,215.5,-9999.0,'1111122,1111122,1111122' 
DISL,ioos:station:DISL:MHPA:1,2016-07-03T03:00:00Z,30.6671,-87.9365,8.5,4.46,218.2,-9999.0,'1111122,1111122,1111122' 
DISL,ioos:station:DISL:MHPA:1,2016-07-03T03:30:00Z,30.6671,-87.9365,8.5,4.24,212.4,-9999.0,'1111122,1111122,1111122' 
DISL,ioos:station:DISL:MHPA:1,2016-07-03T04:00:00Z,30.6671,-87.9365,8.5,4.07,213.9,-9999.0,'1111122,1111122,1111122' 
DISL,ioos:station:DISL:MHPA:1,2016-07-03T04:30:00Z,30.6671,-87.9365,8.5,4.56,217.5,-9999.0,'1111122,1111122,1111122' 
DISL,ioos:station:DISL:MHPA:1,2016-07-03T05:00:00Z,30.6671,-87.9365,8.5,4.26,217.5,-9999.0,'1111122,1111122,1111122' 
DISL,ioos:station:DISL:MHPA:1,2016-07-03T05:30:00Z,30.6671,-87.9365,8.5,3.55,223.1,-9999.0,'1111122,1111122,1111122' 
DISL,ioos:station:DISL:MHPA:1,2016-07-03T06:00:00Z,30.6671,-87.9365,8.5,3.22,229.7,-9999.0,'1111122,1111122,1111122' 
DISL,ioos:station:DISL:MHPA:1,2016-07-03T06:30:00Z,30.6671,-87.9365,8.5,3.15,225.3,-9999.0,'1111122,1111122,1111122' 
DISL,ioos:station:DISL:MHPA:1,2016-07-03T07:00:00Z,30.6671,-87.9365,8.5,3.34,236.1,-9999.0,'1111122,1111122,1111122' 
DISL,ioos:station:DISL:MHPA:1,2016-07-03T07:30:00Z,30.6671,-87.9365,8.5,2.94,230.9,-9999.0,'1111122,1111122,1111122' 
DISL,ioos:station:DISL:MHPA:1,2016-07-03T08:00:00Z,30.6671,-87.9365,8.5,2.94,229.4,-9999.0,'1111122,1111122,1111122' 
DISL,ioos:station:DISL:MHPA:1,2016-07-03T08:30:00Z,30.6671,-87.9365,8.5,3.03,228.6,-9999.0,'1111122,1111122,1111122' 
DISL,ioos:station:DISL:MHPA:1,2016-07-03T09:00:00Z,30.6671,-87.9365,8.5,3.63,223.6,-9999.0,'1111122,1111122,1111122' 
DISL,ioos:station:DISL:MHPA:1,2016-07-03T09:30:00Z,30.6671,-87.9365,8.5,4.07,224.0,-9999.0,'1111122,1111122,1111122' 
DISL,ioos:station:DISL:MHPA:1,2016-07-03T10:00:00Z,30.6671,-87.9365,8.5,3.26,257.3,-9999.0,'1111122,1111122,1111122' 
DISL,ioos:station:DISL:MHPA:1,2016-07-03T10:30:00Z,30.6671,-87.9365,8.5,2.69,272.7,-9999.0,'1111122,1111122,1111122' 
DISL,ioos:station:DISL:MHPA:1,2016-07-03T11:00:00Z,30.6671,-87.9365,8.5,1.97,283.0,-9999.0,'1111122,1111122,1111122' 
DISL,ioos:station:DISL:MHPA:1,2016-07-03T11:30:00Z,30.6671,-87.9365,8.5,1.94,292.8,-9999.0,'1111122,1111122,1111122' 
DISL,ioos:station:DISL:MHPA:1,2016-07-03T12:00:00Z,30.6671,-87.9365,8.5,1.8,284.8,-9999.0,'1111122,1111122,1111122' 
DISL,ioos:station:DISL:MHPA:1,2016-07-03T12:30:00Z,30.6671,-87.9365,8.5,1.44,310.0,-9999.0,'1111122,1111122,1111122' 
DISL,ioos:station:DISL:MHPA:1,2016-07-03T13:00:00Z,30.6671,-87.9365,8.5,2.08,306.8,-9999.0,'1111122,1111122,1111122' 
DISL,ioos:station:DISL:MHPA:1,2016-07-03T13:30:00Z,30.6671,-87.9365,8.5,1.02,288.8,-9999.0,'1111122,1111122,1111122' 
DISL,ioos:station:DISL:MHPA:1,2016-07-03T14:00:00Z,30.6671,-87.9365,8.5,0.97,263.4,-9999.0,'1111122,1111122,1111122' 
DISL,ioos:station:DISL:MHPA:1,2016-07-03T14:30:00Z,30.6671,-87.9365,8.5,1.22,194.4,-9999.0,'1111122,1111122,1111122' 
DISL,ioos:station:DISL:MHPA:1,2016-07-03T15:00:00Z,30.6671,-87.9365,8.5,1.91,176.9,-9999.0,'1111122,1111122,1111122' 
DISL,ioos:station:DISL:MHPA:1,2016-07-03T15:30:00Z,30.6671,-87.9365,8.5,2.03,191.1,-9999.0,'1111122,1111122,1111122' 
DISL,ioos:station:DISL:MHPA:1,2016-07-03T16:00:00Z,30.6671,-87.9365,8.5,2.35,182.5,-9999.0,'1111122,1111122,1111122' 
DISL,ioos:station:DISL:MHPA:1,2016-07-03T16:30:00Z,30.6671,-87.9365,8.5,3.64,192.9,-9999.0,'1111122,1111122,1111122' 
DISL,ioos:station:DISL:MHPA:1,2016-07-03T17:00:00Z,30.6671,-87.9365,8.5,5.35,181.8,-9999.0,'1111122,1111122,1111122' 
DISL,ioos:station:DISL:MHPA:1,2016-07-03T17:30:00Z,30.6671,-87.9365,8.5,6.02,180.6,-9999.0,'1111122,1111122,1111122' 
DISL,ioos:station:DISL:MHPA:1,2016-07-03T18:00:00Z,30.6671,-87.9365,8.5,6.03,177.4,-9999.0,'1111122,1111122,1111122' 
DISL,ioos:station:DISL:MHPA:1,2016-07-03T18:30:00Z,30.6671,-87.9365,8.5,5.61,165.7,-9999.0,'1111122,1111122,1111122' 
DISL,ioos:station:DISL:MHPA:1,2016-07-03T19:00:00Z,30.6671,-87.9365,8.5,5.59,169.6,-9999.0,'1111122,1111122,1111122' 
DISL,ioos:station:DISL:MHPA:1,2016-07-03T19:30:00Z,30.6671,-87.9365,8.5,6.69,169.4,-9999.0,'1111122,1111122,1111122' 
DISL,ioos:station:DISL:MHPA:1,2016-07-03T20:00:00Z,30.6671,-87.9365,8.5,6.72,168.4,-9999.0,'1111122,1111122,1111122' 
DISL,ioos:station:DISL:MHPA:1,2016-07-03T20:30:00Z,30.6671,-87.9365,8.5,6.65,169.1,-9999.0,'1111122,1111122,1111122' 
DISL,ioos:station:DISL:MHPA:1,2016-07-03T21:00:00Z,30.6671,-87.9365,8.5,6.71,166.3,-9999.0,'1111122,1111122,1111122' 
DISL,ioos:station:DISL:MHPA:1,2016-07-03T21:30:00Z,30.6671,-87.9365,8.5,7.21,167.4,-9999.0,'1111122,1111122,1111122' 
DISL,ioos:station:DISL:MHPA:1,2016-07-03T22:00:00Z,30.6671,-87.9365,8.5,6.92,163.4,-9999.0,'1111122,1111122,1111122' 
DISL,ioos:station:DISL:MHPA:1,2016-07-03T22:30:00Z,30.6671,-87.9365,8.5,6.83,168.2,-9999.0,'1111122,1111122,1111122' 
DISL,ioos:station:DISL:MHPA:1,2016-07-03T23:00:00Z,30.6671,-87.9365,8.5,7.34,179.4,-9999.0,'1111122,1111122,1111122' 
DISL,ioos:station:DISL:MHPA:1,2016-07-03T23:30:00Z,30.6671,-87.9365,8.5,6.63,175.6,-9999.0,'1111122,1111122,1111122' 
DISL,ioos:station:DISL:MHPA:1,2016-07-04T00:00:00Z,30.6671,-87.9365,8.5,5.18,188.5,-9999.0,'1111122,1111122,1111122' 
DISL,ioos:station:DISL:MHPA:1,2016-07-04T00:30:00Z,30.6671,-87.9365,8.5,4.71,197.1,-9999.0,'1111122,1111122,1111122' 
DISL,ioos:station:DISL:MHPA:1,2016-07-04T01:00:00Z,30.6671,-87.9365,8.5,4.98,200.4,-9999.0,'1111122,1111122,1111122' 
DISL,ioos:station:DISL:MHPA:1,2016-07-04T01:30:00Z,30.6671,-87.9365,8.5,5.67,201.8,-9999.0,'1111122,1111122,1111122' 
DISL,ioos:station:DISL:MHPA:1,2016-07-04T02:00:00Z,30.6671,-87.9365,8.5,5.75,191.4,-9999.0,'1111122,1111122,1111122' 
DISL,ioos:station:DISL:MHPA:1,2016-07-04T02:30:00Z,30.6671,-87.9365,8.5,5.2,203.4,-9999.0,'1111122,1111122,1111122' 
DISL,ioos:station:DISL:MHPA:1,2016-07-04T03:00:00Z,30.6671,-87.9365,8.5,5.38,195.5,-9999.0,'1111122,1111122,1111122' 
DISL,ioos:station:DISL:MHPA:1,2016-07-04T03:30:00Z,30.6671,-87.9365,8.5,5.2,203.5,-9999.0,'1111122,1111122,1111122' 
DISL,ioos:station:DISL:MHPA:1,2016-07-04T04:00:00Z,30.6671,-87.9365,8.5,4.9,194.8,-9999.0,'1111122,1111122,1111122' 
DISL,ioos:station:DISL:MHPA:1,2016-07-04T04:30:00Z,30.6671,-87.9365,8.5,5.51,198.9,-9999.0,'1111122,1111122,1111122' 
DISL,ioos:station:DISL:MHPA:1,2016-07-04T05:00:00Z,30.6671,-87.9365,8.5,6.01,198.2,-9999.0,'1111122,1111122,1111122' 
DISL,ioos:station:DISL:MHPA:1,2016-07-04T05:30:00Z,30.6671,-87.9365,8.5,5.59,200.7,-9999.0,'1111122,1111122,1111122' 
DISL,ioos:station:DISL:MHPA:1,2016-07-04T06:00:00Z,30.6671,-87.9365,8.5,6.39,206.2,-9999.0,'1111122,1111122,1111122' 
DISL,ioos:station:DISL:MHPA:1,2016-07-04T06:30:00Z,30.6671,-87.9365,8.5,6.5,207.8,-9999.0,'1111122,1111122,1111122' 
DISL,ioos:station:DISL:MHPA:1,2016-07-04T07:00:00Z,30.6671,-87.9365,8.5,6.08,215.6,-9999.0,'1111122,1111122,1111122' 
DISL,ioos:station:DISL:MHPA:1,2016-07-04T07:30:00Z,30.6671,-87.9365,8.5,6.57,211.0,-9999.0,'1111122,1111122,1111122' 
DISL,ioos:station:DISL:MHPA:1,2016-07-04T08:00:00Z,30.6671,-87.9365,8.5,6.61,211.2,-9999.0,'1111122,1111122,1111122' 
DISL,ioos:station:DISL:MHPA:1,2016-07-04T08:30:00Z,30.6671,-87.9365,8.5,6.45,209.1,-9999.0,'1111122,1111122,1111122' 
DISL,ioos:station:DISL:MHPA:1,2016-07-04T09:00:00Z,30.6671,-87.9365,8.5,6.32,219.2,-9999.0,'1111122,1111122,1111122' 
DISL,ioos:station:DISL:MHPA:1,2016-07-04T09:30:00Z,30.6671,-87.9365,8.5,6.11,221.2,-9999.0,'1111122,1111122,1111122' 
DISL,ioos:station:DISL:MHPA:1,2016-07-04T10:00:00Z,30.6671,-87.9365,8.5,4.85,236.0,-9999.0,'1111122,1111122,1111122' 
DISL,ioos:station:DISL:MHPA:1,2016-07-04T10:30:00Z,30.6671,-87.9365,8.5,4.77,221.5,-9999.0,'1111122,1111122,1111122' 
DISL,ioos:station:DISL:MHPA:1,2016-07-04T11:00:00Z,30.6671,-87.9365,8.5,4.03,225.4,-9999.0,'1111122,1111122,1111122' 
DISL,ioos:station:DISL:MHPA:1,2016-07-04T11:30:00Z,30.6671,-87.9365,8.5,3.8,228.7,-9999.0,'1111122,1111122,1111122' 
DISL,ioos:station:DISL:MHPA:1,2016-07-04T12:00:00Z,30.6671,-87.9365,8.5,4.05,224.6,-9999.0,'1111122,1111122,1111122' 
DISL,ioos:station:DISL:MHPA:1,2016-07-04T12:30:00Z,30.6671,-87.9365,8.5,4.47,223.7,-9999.0,'1111122,1111122,1111122' 
DISL,ioos:station:DISL:MHPA:1,2016-07-04T13:00:00Z,30.6671,-87.9365,8.5,4.35,223.3,-9999.0,'1111122,1111122,1111122' 
DISL,ioos:station:DISL:MHPA:1,2016-07-04T13:30:00Z,30.6671,-87.9365,8.5,3.71,211.7,-9999.0,'1111122,1111122,1111122' 
DISL,ioos:station:DISL:MHPA:1,2016-07-04T14:00:00Z,30.6671,-87.9365,8.5,3.77,204.8,-9999.0,'1111122,1111122,1111122' 
DISL,ioos:station:DISL:MHPA:1,2016-07-04T14:30:00Z,30.6671,-87.9365,8.5,4.02,187.4,-9999.0,'1111122,1111122,1111122' 
DISL,ioos:station:DISL:MHPA:1,2016-07-04T15:00:00Z,30.6671,-87.9365,8.5,4.9,198.1,-9999.0,'1111122,1111122,1111122' 
DISL,ioos:station:DISL:MHPA:1,2016-07-04T15:30:00Z,30.6671,-87.9365,8.5,3.94,237.2,-9999.0,'1111122,1111122,1111122' 
DISL,ioos:station:DISL:MHPA:1,2016-07-04T16:00:00Z,30.6671,-87.9365,8.5,5.41,189.1,-9999.0,'1111122,1111122,1111122' 
DISL,ioos:station:DISL:MHPA:1,2016-07-04T16:30:00Z,30.6671,-87.9365,8.5,5.59,189.3,-9999.0,'1111122,1111122,1111122' 
DISL,ioos:station:DISL:MHPA:1,2016-07-04T17:00:00Z,30.6671,-87.9365,8.5,6.51,173.8,-9999.0,'1111122,1111122,1111122' 
DISL,ioos:station:DISL:MHPA:1,2016-07-04T17:30:00Z,30.6671,-87.9365,8.5,7.71,173.1,-9999.0,'1111122,1111122,1111122' 
DISL,ioos:station:DISL:MHPA:1,2016-07-04T18:00:00Z,30.6671,-87.9365,8.5,7.76,180.7,-9999.0,'1111122,1111122,1111122' 
DISL,ioos:station:DISL:MHPA:1,2016-07-04T18:30:00Z,30.6671,-87.9365,8.5,4.9,245.1,-9999.0,'1111122,1111122,1111122' 
DISL,ioos:station:DISL:MHPA:1,2016-07-04T19:00:00Z,30.6671,-87.9365,8.5,2.72,197.4,-9999.0,'1111122,1111122,1111122' 
DISL,ioos:station:DISL:MHPA:1,2016-07-04T19:30:00Z,30.6671,-87.9365,8.5,6.98,176.4,-9999.0,'1111122,1111122,1111122' 
DISL,ioos:station:DISL:MHPA:1,2016-07-04T20:00:00Z,30.6671,-87.9365,8.5,7.75,170.7,-9999.0,'1111122,1111122,1111122' 
DISL,ioos:station:DISL:MHPA:1,2016-07-04T20:30:00Z,30.6671,-87.9365,8.5,7.75,181.4,-9999.0,'1111122,1111122,1111122' 
DISL,ioos:station:DISL:MHPA:1,2016-07-04T21:00:00Z,30.6671,-87.9365,8.5,8.17,182.5,-9999.0,'1111122,1111122,1111122' 
DISL,ioos:station:DISL:MHPA:1,2016-07-04T21:30:00Z,30.6671,-87.9365,8.5,7.49,180.8,-9999.0,'1111122,1111122,1111122' 
DISL,ioos:station:DISL:MHPA:1,2016-07-04T22:00:00Z,30.6671,-87.9365,8.5,7.32,180.7,-9999.0,'1111122,1111122,1111122' 
DISL,ioos:station:DISL:MHPA:1,2016-07-04T22:30:00Z,30.6671,-87.9365,8.5,6.14,206.7,-9999.0,'1111122,1111122,1111122' 
DISL,ioos:station:DISL:MHPA:1,2016-07-04T23:00:00Z,30.6671,-87.9365,8.5,6.9,192.5,-9999.0,'1111122,1111122,1111122' 
DISL,ioos:station:DISL:MHPA:1,2016-07-04T23:30:00Z,30.6671,-87.9365,8.5,6.41,198.8,-9999.0,'1111122,1111122,1111122' 
DISL,ioos:station:DISL:MHPA:1,2016-07-05T00:00:00Z,30.6671,-87.9365,8.5,6.19,187.9,-9999.0,'1111122,1111122,1111122' 
DISL,ioos:station:DISL:MHPA:1,2016-07-05T00:30:00Z,30.6671,-87.9365,8.5,6.55,184.4,-9999.0,'1111122,1111122,1111122' 
DISL,ioos:station:DISL:MHPA:1,2016-07-05T01:00:00Z,30.6671,-87.9365,8.5,7.44,170.5,-9999.0,'1111122,1111122,1111122' 
DISL,ioos:station:DISL:MHPA:1,2016-07-05T01:30:00Z,30.6671,-87.9365,8.5,7.24,183.6,-9999.0,'1111122,1111122,1111122' 
DISL,ioos:station:DISL:MHPA:1,2016-07-05T02:00:00Z,30.6671,-87.9365,8.5,6.93,197.7,-9999.0,'1111122,1111122,1111122' 
DISL,ioos:station:DISL:MHPA:1,2016-07-05T02:30:00Z,30.6671,-87.9365,8.5,6.75,214.3,-9999.0,'1111122,1111122,1111122' 
DISL,ioos:station:DISL:MHPA:1,2016-07-05T03:00:00Z,30.6671,-87.9365,8.5,6.18,215.5,-9999.0,'1111122,1111122,1111122' 
DISL,ioos:station:DISL:MHPA:1,2016-07-05T03:30:00Z,30.6671,-87.9365,8.5,5.75,213.1,-9999.0,'1111122,1111122,1111122' 
DISL,ioos:station:DISL:MHPA:1,2016-07-05T04:00:00Z,30.6671,-87.9365,8.5,5.19,204.9,-9999.0,'1111122,1111122,1111122' 
DISL,ioos:station:DISL:MHPA:1,2016-07-05T04:30:00Z,30.6671,-87.9365,8.5,5.24,205.8,-9999.0,'1111122,1111122,1111122' 